Vertical_Velocity
2 1 2 -1 1 -2 -1 -3 -2 -1 -2 -2 -4 0 -1 1 -2 -1 1 -2 3 7 3 2 1 2 -0 1 -0 -0 0 -2 2 2 0 -1 0 -0 -1 -2 -1 1 -2 -3 1 0 -2 1 -2
1 1 2 1 1 -1 -2 -1 2 -1 -2 0 0 -0 1 1 -1 -4 0 -4 -2 2 2 4 4 2 2 1 0 1 0 -0 -1 1 0 0 -1 0 -2 0 0 0 -1 -4 -1 1 -0 -2 -2
-0 1 5 -0 -4 -5 1 1 2 -2 -1 0 1 -0 -0 -4 -2 -4 -4 -1 -4 1 3 1 2 1 1 2 2 0 1 1 -2 2 -2 0 -1 -0 1 -1 -0 1 -1 -1 -5 0 -0 -2 -0
1 -1 1 -1 -4 2 1 -1 1 -1 2 -0 3 0 -4 -2 0 -1 0 -3 -3 -2 3 1 -0 1 -0 2 1 1 2 1 1 -0 2 1 -0 1 -1 1 -2 1 0 0 -3 -1 -2 -1 -2
-0 3 1 -4 -6 2 0 4 0 -1 1 -0 3 0 -1 0 1 2 -1 1 -4 -4 1 4 -2 1 -1 -3 1 0 0 2 2 -0 2 1 0 0 1 -1 1 -1 1 1 1 -3 -1 0 -1
-0 0 1 -9 -6 1 3 2 0 -2 -1 0 3 2 0 -0 -0 0 0 1 -4 -4 1 -2 -1 -0 5 4 -1 -1 1 0 1 3 4 3 1 2 0 1 -1 -0 0 1 2 -2 -2 0 -0
3 1 -2 -3 -4 1 1 1 -2 0 0 -0 0 3 -1 -1 -0 0 -0 1 -1 -5 6 8 7 7 -3 6 -1 -1 -1 0 0 -1 0 3 1 0 1 0 -1 -2 1 1 2 -0 -2 -0 1
-0 5 -1 -5 -4 -2 2 -0 -1 -0 1 -1 1 -2 -3 1 -1 1 -0 1 1 1 -1 -4 7 10 8 10 2 1 -1 1 1 1 -2 -2 2 0 1 -1 -1 -1 -2 1 0 2 -1 -2 -0
1 0 -3 -5 -4 1 2 3 1 -2 -1 0 0 -2 -2 0 -0 0 0 -0 0 2 -2 1 -1 5 9 10 7 9 7 3 1 -0 1 -1 -3 0 1 0 0 -1 -1 -1 1 -1 1 0 -0
0 -2 1 -4 -0 -3 3 4 3 -2 -0 -6 -1 -1 0 1 0 0 -1 -1 1 -1 -0 0 -1 -2 0 11 8 6 8 6 -2 -0 3 1 2 -0 -0 -1 1 1 -1 -2 0 -0 -0 0 -1
-3 -3 0 -1 -3 -5 -2 1 -2 -3 -5 1 1 5 -1 -1 4 0 -0 -1 -2 -0 1 -1 -0 -1 -1 -0 6 8 7 9 2 0 -1 3 1 1 -1 0 -2 -0 0 -1 1 1 -1 0 1
-3 -1 -2 -1 -5 -3 -1 0 0 -4 -0 4 1 1 0 -6 1 2 2 1 -1 -0 1 0 0 0 2 -1 1 3 2 6 5 3 1 -0 0 2 4 2 -0 -2 1 -1 0 -1 1 -0 0
-2 -1 -1 -1 1 -4 -5 0 -2 -8 -1 1 -0 -1 -1 -1 -2 -0 2 3 -0 -1 -3 1 -0 -1 2 -2 0 0 3 2 5 4 5 1 2 -0 5 3 3 1 -0 1 -0 -0 -1 1 0
-1 -2 -0 -2 1 -6 -10 -3 -7 1 4 0 2 -0 -1 -4 -2 -2 -2 -0 -0 -2 0 -2 -1 0 -1 0 -1 -3 1 8 3 -2 7 1 2 1 2 4 3 2 3 1 -0 1 -1 -0 -1
-3 -7 -4 3 -1 -8 -2 -24 -17 11 -3 -11 -1 2 -1 -2 -2 -5 1 -4 -0 2 -1 0 -2 -2 -1 -1 1 -2 0 4 0 0 -0 3 -1 -1 3 -0 3 3 4 4 -1 -1 1 -3 -1
-2 -6 -7 -1 -1 2 -1 -39 12 0 -2 -2 -6 -1 -2 2 -1 1 -1 -3 -0 -4 -1 -2 1 1 -1 -1 -2 -1 1 0 2 2 -6 1 -0 1 -1 4 -0 1 2 6 6 -0 3 2 -1
-5 -4 -4 -5 -1 0 -2 1 -0 2 -6 -4 -3 -5 -3 -6 -4 2 2 -0 1 3 -0 2 2 2 4 2 1 0 -0 -1 1 2 12 -1 1 -2 -2 2 3 1 2 2 1 4 1 4 5
-1 -3 -1 -1 2 4 -0 -10 -9 5 -7 -4 -8 -3 -7 -3 1 -3 -3 -1 -1 -1 -4 -7 -2 0 1 1 -2 -0 -2 -1 1 -0 -2 -1 -2 -1 -0 2 -3 2 -1 -0 -0 3 2 2 5
-2 -2 -2 7 8 -6 -6 -2 -9 6 -4 -1 -2 -6 -3 -3 -3 -5 -5 -1 -5 -2 -1 -2 -5 5 -1 1 0 -3 -3 -7 -2 -5 -3 -3 -0 1 4 6 2 -2 -3 2 3 4 0 1 -1
-4 -1 -3 -4 2 -1 3 -16 -2 -0 2 4 2 -0 -4 -4 -4 -4 -5 -4 -3 -4 -3 1 1 -2 5 -3 3 0 5 -2 3 4 -4 41 -1 3 5 6 4 1 2 0 2 4 0 2 -2
-2 -1 2 -3 1 4 -2 -10 2 0 -1 -1 -1 -1 -1 -9 -8 -2 -6 -6 -2 -5 -4 -2 -2 0 1 5 -1 1 4 3 -2 2 0 -6 -3 4 10 1 -0 12 4 2 3 4 2 0 3
-1 2 -0 2 -2 -6 2 -11 -8 -2 -2 -2 -6 -6 -4 -0 -3 -8 -3 -2 -5 1 -2 -5 1 2 -1 4 -1 1 7 1 0 1 -4 8 -3 -2 1 2 1 -3 26 1 3 3 5 2 -1
-5 0 4 4 1 2 1 7 -2 -2 -1 -2 -3 -7 -5 -4 -6 3 -2 -1 1 -3 -0 -4 -6 1 -1 -6 0 5 6 2 5 2 4 -6 1 -6 0 -1 12 5 4 9 8 1 -5 -1 4
0 0 3 -1 -0 3 -1 2 -8 3 -2 -13 -8 -2 -0 -2 -3 -6 -2 -7 -2 -3 -1 -1 -3 -8 -3 -5 -2 -6 7 6 3 1 -1 -5 3 -5 -8 1 -2 9 7 4 13 -18 8 8 1
2 -1 -4 -6 -1 -9 2 1 -3 1 -2 -2 -8 -6 -6 -0 -0 2 -1 -1 -4 -6 -4 0 -0 -1 -8 -1 -7 -5 -5 0 0 1 1 0 -0 -6 -7 -2 -9 -1 -0 24 16 -21 -19 -2 8
-1 2 -1 -2 -2 -4 2 -4 0 -7 3 -3 2 -4 -3 -5 -5 -2 -0 -6 -2 -3 -1 2 -2 -0 -5 -4 -1 5 -2 -6 -2 -1 -3 -5 -3 -4 -1 -4 0 -1 4 1 1 -1 -15 -2 0
0 -1 1 2 1 4 -0 4 3 2 -5 2 -1 2 1 0 1 -0 -5 2 3 6 5 -1 -3 -0 -1 1 5 2 13 6 -7 -1 -0 -3 -0 -4 0 -7 -1 -2 3 2 14 6 -19 -3 2
2 4 4 3 -0 -2 -2 1 -3 -18 -12 -9 -14 -3 6 7 -0 -3 -1 6 2 3 4 4 -2 -5 -3 1 -3 8 11 5 2 -2 -2 -3 -1 -5 1 -7 -2 -2 0 -0 10 3 -4 2 4
-2 0 -2 2 -0 2 0 -2 7 6 12 -8 5 5 -6 -8 -0 1 1 -1 -5 -3 0 -2 4 1 4 10 13 11 1 1 3 0 -0 -4 5 -7 -1 -1 -9 2 10 5 34 2 -0 5 5
4 1 3 1 -4 0 0 -9 -5 1 12 3 6 5 2 -1 -5 -6 -0 4 -5 -2 -6 -4 4 3 14 0 12 2 6 -5 -1 8 11 8 -1 -2 -1 -10 10 1 3 40 -12 -19 2 -0 2
Height
3118 3120 3122 3124 3131 3126 3124 3126 3127 3129 3131 3132 3136 3140 3143 3147 3150 3156 3153 3154 3155 3157 3158 3159 3161 3162 3162 3163 3164 3166 3167 3169 3170 3171 3172 3173 3174 3176 3177 3177 3178 3178 3178 3178 3178 3179 3179 3180 3181
3115 3118 3120 3121 3123 3122 3122 3123 3125 3127 3129 3131 3133 3136 3141 3144 3145 3148 3150 3152 3154 3157 3158 3159 3160 3161 3162 3162 3163 3165 3167 3169 3170 3171 3172 3173 3174 3175 3177 3178 3179 3179 3179 3179 3179 3179 3180 3180 3181
3113 3116 3119 3119 3119 3119 3120 3122 3123 3125 3127 3129 3131 3134 3137 3139 3142 3144 3146 3149 3153 3155 3158 3158 3159 3160 3162 3163 3163 3164 3166 3167 3169 3171 3172 3173 3175 3176 3177 3178 3179 3179 3179 3180 3180 3179 3180 3181 3182
3109 3113 3116 3114 3115 3117 3119 3120 3121 3123 3125 3128 3130 3133 3135 3137 3140 3142 3145 3147 3151 3153 3155 3158 3158 3159 3161 3162 3163 3164 3165 3167 3169 3170 3172 3173 3174 3176 3177 3178 3179 3179 3180 3181 3181 3180 3180 3182 3182
3105 3108 3109 3110 3114 3115 3117 3118 3119 3121 3123 3126 3129 3128 3131 3134 3136 3139 3143 3145 3147 3150 3152 3154 3156 3158 3159 3161 3162 3164 3165 3166 3168 3170 3172 3174 3175 3176 3177 3178 3179 3180 3181 3182 3182 3181 3181 3182 3183
3102 3105 3104 3106 3111 3112 3115 3115 3117 3119 3121 3124 3126 3126 3129 3130 3133 3136 3139 3142 3144 3147 3150 3151 3154 3156 3158 3160 3161 3163 3165 3167 3168 3169 3171 3173 3175 3175 3176 3178 3179 3180 3181 3182 3183 3183 3182 3183 3184
3099 3101 3102 3104 3108 3110 3111 3113 3113 3115 3119 3121 3123 3124 3125 3127 3129 3132 3135 3138 3141 3143 3144 3149 3151 3154 3154 3157 3159 3161 3163 3165 3167 3169 3170 3172 3174 3175 3176 3177 3178 3180 3181 3181 3182 3183 3184 3184 3185
3096 3097 3097 3101 3105 3106 3107 3109 3110 3112 3114 3117 3119 3118 3123 3124 3125 3127 3130 3133 3136 3139 3141 3142 3145 3148 3152 3155 3156 3158 3160 3162 3164 3167 3170 3170 3172 3173 3175 3177 3178 3179 3180 3181 3182 3183 3184 3185 3186
3094 3094 3093 3096 3102 3103 3103 3103 3104 3106 3109 3112 3114 3115 3120 3120 3122 3124 3126 3128 3131 3134 3137 3140 3142 3143 3147 3150 3152 3155 3157 3159 3161 3163 3166 3169 3171 3171 3173 3176 3177 3179 3180 3181 3182 3183 3184 3186 3187
3089 3088 3090 3093 3096 3097 3097 3096 3098 3101 3102 3105 3109 3110 3113 3114 3117 3119 3121 3123 3126 3129 3132 3135 3138 3141 3142 3145 3148 3151 3154 3155 3158 3160 3163 3165 3168 3171 3172 3173 3175 3178 3179 3180 3181 3183 3184 3185 3187
3084 3084 3086 3088 3091 3092 3091 3090 3090 3093 3095 3100 3102 3103 3103 3108 3111 3113 3116 3118 3120 3124 3127 3130 3133 3136 3139 3141 3143 3146 3148 3152 3154 3156 3160 3162 3164 3167 3170 3172 3174 3176 3178 3179 3181 3182 3183 3184 3186
3081 3081 3082 3083 3085 3086 3086 3084 3083 3085 3090 3092 3091 3094 3097 3100 3103 3106 3109 3112 3114 3116 3120 3124 3128 3131 3134 3136 3139 3141 3144 3147 3149 3152 3155 3158 3161 3164 3167 3170 3173 3174 3176 3178 3180 3180 3182 3183 3185
3076 3076 3077 3079 3080 3080 3080 3078 3077 3076 3082 3084 3084 3087 3088 3092 3094 3096 3100 3103 3106 3109 3112 3117 3120 3124 3127 3130 3134 3136 3139 3141 3144 3148 3151 3154 3157 3160 3163 3167 3169 3172 3174 3176 3178 3179 3181 3182 3183
3071 3072 3074 3075 3076 3075 3074 3073 3071 3070 3076 3080 3078 3078 3079 3081 3085 3086 3088 3093 3098 3101 3105 3109 3113 3117 3121 3125 3128 3131 3133 3136 3140 3142 3146 3150 3154 3156 3159 3163 3166 3169 3171 3173 3175 3177 3179 3181 3182
3068 3069 3070 3070 3072 3069 3070 3065 3063 3068 3068 3069 3071 3070 3070 3070 3074 3077 3081 3082 3087 3092 3097 3100 3103 3108 3113 3118 3121 3124 3128 3130 3133 3137 3141 3145 3149 3153 3156 3159 3163 3166 3168 3170 3172 3174 3176 3179 3180
3066 3065 3064 3066 3067 3065 3064 3052 3062 3059 3061 3060 3060 3060 3060 3062 3064 3066 3069 3071 3075 3079 3086 3092 3095 3098 3103 3109 3114 3117 3121 3124 3127 3130 3134 3139 3144 3148 3151 3155 3159 3162 3164 3166 3169 3171 3173 3176 3178
3061 3062 3062 3061 3061 3059 3057 3045 3051 3052 3054 3050 3049 3048 3048 3049 3053 3055 3057 3059 3062 3064 3069 3077 3083 3087 3093 3099 3104 3109 3114 3117 3120 3123 3125 3131 3136 3141 3146 3150 3154 3158 3160 3163 3166 3168 3171 3173 3176
3060 3061 3059 3057 3058 3054 3050 3039 3044 3048 3045 3041 3040 3041 3040 3039 3040 3044 3043 3043 3045 3049 3052 3059 3068 3074 3080 3086 3092 3097 3100 3106 3112 3116 3120 3125 3129 3135 3139 3144 3147 3152 3156 3158 3161 3165 3167 3170 3173
3059 3059 3056 3055 3055 3046 3045 3036 3039 3040 3034 3033 3033 3032 3031 3029 3031 3032 3032 3032 3032 3035 3038 3042 3049 3059 3066 3071 3078 3084 3089 3097 3104 3108 3113 3117 3122 3127 3131 3136 3141 3145 3150 3154 3157 3160 3163 3166 3168
3059 3057 3052 3053 3051 3046 3040 3031 3033 3031 3028 3027 3028 3027 3025 3023 3024 3024 3023 3024 3024 3025 3026 3029 3034 3041 3051 3058 3064 3072 3082 3089 3095 3101 3106 3105 3111 3118 3123 3128 3133 3140 3143 3146 3150 3154 3158 3161 3163
3057 3055 3052 3052 3046 3043 3037 3028 3027 3028 3026 3025 3024 3021 3018 3014 3012 3013 3013 3014 3014 3015 3017 3018 3021 3026 3034 3043 3050 3057 3067 3073 3079 3084 3093 3097 3105 3111 3115 3121 3125 3132 3136 3140 3144 3149 3153 3157 3160
3054 3053 3051 3049 3046 3044 3042 3037 3026 3024 3023 3020 3015 3011 3007 3003 2999 2999 3001 3002 3003 3005 3007 3008 3009 3013 3018 3027 3033 3041 3049 3058 3069 3077 3085 3093 3099 3105 3109 3115 3119 3124 3128 3133 3138 3143 3148 3151 3155
3053 3051 3049 3046 3045 3045 3037 3038 3021 3020 3017 3012 3006 3002 2997 2992 2988 2987 2988 2990 2991 2994 2997 2999 3001 3003 3008 3013 3019 3028 3035 3046 3059 3067 3075 3082 3089 3094 3100 3107 3111 3118 3121 3126 3129 3134 3141 3146 3150
3052 3049 3046 3044 3045 3044 3033 3033 3020 3018 3014 3004 2996 2991 2989 2984 2980 2978 2980 2982 2985 2986 2989 2990 2991 2995 2999 3004 3010 3016 3026 3034 3044 3054 3062 3070 3077 3085 3092 3098 3104 3109 3114 3116 3119 3125 3133 3139 3144
3050 3048 3047 3049 3047 3038 3030 3031 3021 3018 3012 3000 2985 2978 2976 2973 2971 2970 2972 2975 2977 2979 2981 2982 2983 2985 2989 2993 3000 3007 3016 3025 3034 3045 3053 3061 3068 3076 3084 3091 3095 3101 3106 3107 3113 3116 3124 3131 3136
3048 3049 3049 3051 3047 3033 3029 3026 3021 3017 3008 2996 2985 2973 2966 2962 2961 2962 2964 2967 2969 2970 2972 2974 2977 2979 2983 2987 2990 2997 3006 3015 3023 3032 3041 3051 3058 3067 3076 3083 3088 3096 3099 3102 3105 3109 3113 3121 3127
3047 3047 3046 3043 3037 3034 3024 3022 3020 3013 3001 2989 2978 2970 2964 2958 2957 2959 2960 2962 2965 2966 2967 2968 2971 2974 2977 2980 2985 2990 2998 3006 3013 3022 3031 3039 3048 3057 3066 3074 3081 3086 3090 3094 3094 3099 3105 3110 3118
3046 3046 3045 3043 3039 3036 3022 3021 3016 3001 2990 2979 2970 2964 2958 2955 2953 2954 2955 2957 2960 2962 2963 2963 2964 2967 2972 2975 2981 2987 2993 3000 3008 3015 3021 3030 3039 3048 3055 3064 3074 3077 3080 3083 3086 3090 3099 3103 3109
3047 3045 3043 3042 3040 3037 3032 3024 3016 3006 2996 2984 2972 2966 2962 2958 2954 2953 2954 2955 2956 2956 2956 2957 2959 2963 2968 2973 2978 2983 2988 2994 3001 3009 3017 3024 3031 3038 3044 3055 3065 3067 3070 3074 3074 3083 3091 3097 3101
3045 3044 3041 3039 3042 3036 3033 3026 3018 3006 2995 2985 2975 2967 2961 2960 2959 2958 2955 2954 2953 2954 2954 2951 2955 2959 2962 2967 2971 2976 2982 2988 2995 3003 3011 3019 3023 3031 3037 3046 3054 3056 3063 3065 3069 3076 3084 3090 3093